Location: Oberkirch
(48.5323°N, 8.0787°E)
Time: 16:36:53
(UTC+00:00)

SR - Pass Details

Date: 25 February 2026
Orbit: 572 x 848 km, 66.7° (Epoch: 8 March)

Event Time Altitude Azimuth Distance (km) Brightness Sun altitude
Exits shadow 04:59:59 11° 314° (NW) 1,950 ? -13.5°
Maximum altitude 05:01:40 13° 337° (NNW) 1,851 ? -13.3°
Drops below altitude 10° 05:03:46 10° 4° (N) 2,069 ? -12.9°
Sets 05:07:30 0° 33° (NNE) 3,056 ? -12.3°
